Location: Milano
(45.4670°N, 9.2000°E)
Time: 07:06:54
(UTC+02:00)

X-37B - Pass Details

Date: 02 August 2021
Orbit: 381 x 393 km, 45.0° (Epoch: 29 August)

Event Time Altitude Azimuth Distance (km) Brightness Sun altitude
Exits shadow 04:35:52 17° 173° (S) 1,045 2.4 -14.0°
Maximum altitude 04:36:46 19° 150° (SSE) 972 2.4 -13.9°
Drops below altitude 10° 04:39:06 10° 101° (ESE) 1,396 3.9 -13.6°
Sets 04:41:32 0° 83° (E) 2,253 5.4 -13.3°
